Location: Glencliff
(36.1226°N, 86.7183°W)
Time: 09:54:19
(UTC+00:00)

USA 234 - Pass Details

Date: 25 August 2019
Orbit: 1098 x 1109 km, 123.0° (Epoch: 16 September)

Event Time Altitude Azimuth Distance (km) Brightness Sun altitude
Exits shadow 02:13:18 35° 113° (ESE) 1,699 3.7 -20.8°
Maximum altitude 02:16:12 68° 42° (NE) 1,183 3.3 -21.3°
Drops below altitude 10° 02:22:41 10° 321° (NW) 2,969 6.5 -22.4°
Sets 02:25:11 0° 319° (NW) 3,931 7.5 -22.8°
